GSAT-6

Last updated on Sat Oct 25 2025 00:02:50 GMT+0000 (Coordinated Universal Time)

1 40880U 15041A 25297.75289000 -.00000147 00000+0 00000+0 0 9998 2 40880 1.3071 85.6523 0003239 129.0470 172.2757 1.00269890 37234
UTC large
Height (km)
Speed (km/s)
/
Latitude / Longitude
Inclination (degrees)
Orbital Period (minutes)
Azimuth
Elevation
Range (km)
Doppler Factor

Next 0 passes for location: London (51.5072 / 0.1276)

Sorry there are no passes over London.